This demonstration page uses our WeatherBlox Daily Observations layout. Learn more.

Left ArrowRight Arrow

Hourly Observations for April 13, 2017

Temp ( °F °C ) Dew Point ( °F °C ) Humidity (%) Winds ( mph kmh ) Pressure ( in mb ) Visibility ( mi km ) Precip ( " mm )
12:15 am 00:15 Clear 55 13 46 8 72 72 NNW 5 7 30.09 1019 10 16 0.00 0.00
12:35 am 00:35 Clear 54 12 45 7 72 72 NNW 6 9 30.12 1020 10 16 0.00 0.00
12:55 am 00:55 Clear 54 12 45 7 72 72 NNW 6 9 30.12 1020 10 16 0.00 0.00
1:15 am 01:15 Clear 54 12 45 7 72 72 NNW 7 11 30.12 1020 10 16 0.00 0.00
1:35 am 01:35 Clear 52 11 45 7 77 77 N 10 17 30.12 1020 10 16 0.00 0.00
1:55 am 01:55 Clear 52 11 46 8 82 82 NNE 8 13 30.12 1020 10 16 0.00 0.00
2:15 am 02:15 Clear 50 10 45 7 82 82 NNE 3 6 30.12 1020 9 14 0.00 0.00
2:35 am 02:35 Clear 52 11 46 8 82 82 NNW 7 11 30.12 1020 9 14 0.00 0.00
2:55 am 02:55 Clear 52 11 46 8 82 82 NNW 8 13 30.12 1020 8 13 0.00 0.00
3:15 am 03:15 Clear 50 10 45 7 82 82 NNW 7 11 30.12 1020 7 11 0.00 0.00
3:35 am 03:35 Clear 50 10 45 7 82 82 NNW 9 15 30.12 1020 7 11 0.00 0.00
3:55 am 03:55 Clear 48 9 45 7 87 87 N 7 11 30.15 1021 7 11 0.00 0.00
4:15 am 04:15 Clear 48 9 45 7 87 87 N 13 20 30.15 1021 7 11 0.00 0.00
4:35 am 04:35 Clear 48 9 45 7 87 87 N 13 20 30.15 1021 7 11 0.00 0.00
4:55 am 04:55 Clear 48 9 45 7 87 87 N 10 17 30.15 1021 6 10 0.00 0.00
5:15 am 05:15 Clear 48 9 43 6 82 82 NNE 7 11 30.15 1021 6 10 0.00 0.00
5:35 am 05:35 Clear 46 8 43 6 87 87 N 15 24 30.15 1021 5 8 0.00 0.00
5:55 am 05:55 Clear 46 8 43 6 87 87 N 9 15 30.15 1021 5 8 0.00 0.00
6:15 am 06:15 Clear 46 8 43 6 87 87 N 12 19 30.15 1021 5 8 0.00 0.00
6:35 am 06:35 Clear 46 8 41 5 82 82 N 9 15 30.18 1022 4 6 0.00 0.00
6:55 am 06:55 Clear 45 7 39 4 81 81 N 8 13 30.18 1022 2 3 0.00 0.00
7:15 am 07:15 Sunny 45 7 41 5 87 87 N 6 9 30.21 1023 2 3 0.00 0.00
7:35 am 07:35 Mostly Cloudy 45 7 41 5 87 87 N 3 6 30.21 1023 3 4 0.00 0.00
7:55 am 07:55 Cloudy 45 7 41 5 87 87 N 7 11 30.21 1023 2 3 0.00 0.00
8:15 am 08:15 Cloudy 46 8 43 6 87 87 N 7 11 30.21 1023 2 3 0.00 0.00
8:35 am 08:35 Cloudy 46 8 43 6 87 87 NNE 6 9 30.21 1023 3 4 0.00 0.00
8:55 am 08:55 Cloudy 48 9 43 6 82 82 NE 6 9 30.21 1023 3 5 0.00 0.00
9:15 am 09:15 Cloudy 48 9 45 7 87 87 NE 8 13 30.21 1023 3 5 0.00 0.00
9:35 am 09:35 Cloudy 50 10 45 7 82 82 N 17 28 30.15 1021 3 5 0.00 0.00
9:55 am 09:55 Partly Cloudy 52 11 46 8 82 82 NNE 15 24 30.15 1021 3 5 0.00 0.00
10:15 am 10:15 Mostly Cloudy 54 12 46 8 77 77 NNE 6 9 30.18 1022 4 6 0.00 0.00
10:35 am 10:35 Mostly Sunny 55 13 48 9 77 77 NNE 6 9 30.18 1022 5 8 0.00 0.00
10:55 am 10:55 Sunny 59 15 48 9 68 68 NE 15 24 30.12 1020 6 10 0.00 0.00
11:15 am 11:15 Sunny 61 16 50 10 68 68 NE 16 26 30.12 1020 7 11 0.00 0.00
11:35 am 11:35 Sunny 63 17 50 10 64 64 ENE 12 19 30.09 1019 8 13 0.00 0.00
11:55 am 11:55 Sunny 63 17 50 10 64 64 E 7 11 30.09 1019 8 13 0.00 0.00
12:15 pm 12:15 Sunny 64 18 50 10 60 60 E 10 17 30.09 1019 8 13 0.00 0.00
12:35 pm 12:35 Sunny 66 19 52 11 60 60 E 10 17 30.09 1019 9 14 0.00 0.00
12:55 pm 12:55 Sunny 68 20 52 11 56 56 E 10 17 30.06 1018 9 14 0.00 0.00
1:15 pm 13:15 Sunny 70 21 52 11 53 53 E 9 15 30.03 1017 9 14 0.00 0.00
1:35 pm 13:35 Sunny 70 21 52 11 53 53 SE 10 17 30.03 1017 10 16 0.00 0.00
1:55 pm 13:55 Sunny 72 22 54 12 53 53 SSE 10 17 30.03 1017 10 16 0.00 0.00
2:15 pm 14:15 Sunny 72 22 54 12 53 53 ESE 12 19 30.00 1016 10 16 0.00 0.00
2:35 pm 14:35 Sunny 73 23 52 11 47 47 ESE 8 13 30.00 1016 10 16 0.00 0.00
2:55 pm 14:55 Sunny 73 23 52 11 47 47 SE 5 7 30.00 1016 10 16 0.00 0.00
3:15 pm 15:15 Sunny 73 23 52 11 47 47 SE 7 11 29.97 1015 10 16 0.00 0.00
3:35 pm 15:35 Sunny 75 24 52 11 44 44 SE 3 6 29.94 1014 10 16 0.00 0.00
3:55 pm 15:55 Sunny 73 23 52 11 47 47 SE 9 15 29.97 1015 10 16 0.00 0.00
4:15 pm 16:15 Sunny 75 24 52 11 44 44 S 7 11 29.94 1014 10 16 0.00 0.00
4:35 pm 16:35 Mostly Sunny 73 23 52 11 47 47 SSE 10 17 29.97 1015 10 16 0.00 0.00
4:55 pm 16:55 Partly Cloudy 75 24 54 12 47 47 SE 13 20 29.91 1013 10 16 0.00 0.00
5:15 pm 17:15 Mostly Sunny 73 23 52 11 47 47 S 8 13 29.94 1014 10 16 0.00 0.00
5:35 pm 17:35 Mostly Sunny 73 23 52 11 47 47 SSE 10 17 29.94 1014 10 16 0.00 0.00
5:55 pm 17:55 Mostly Sunny 73 23 52 11 47 47 SE 14 22 29.94 1014 10 16 0.00 0.00
6:15 pm 18:15 Sunny 72 22 52 11 50 50 SE 12 19 29.94 1014 10 16 0.00 0.00
6:35 pm 18:35 Mostly Sunny 72 22 52 11 50 50 SSE 13 20 29.94 1014 10 16 0.00 0.00
6:55 pm 18:55 Partly Cloudy 72 22 50 10 47 47 S 14 22 29.94 1014 10 16 0.00 0.00
7:15 pm 19:15 Partly Cloudy 72 22 52 11 50 50 SSE 14 22 29.94 1014 10 16 0.00 0.00
7:35 pm 19:35 Partly Cloudy 70 21 52 11 53 53 S 13 20 29.94 1014 10 16 0.00 0.00
7:55 pm 19:55 Partly Cloudy 66 19 50 10 56 56 SW 13 20 29.97 1015 10 16 0.00 0.00
8:15 pm 20:15 Partly Cloudy 64 18 48 9 56 56 SSW 13 20 29.97 1015 10 16 0.00 0.00
8:35 pm 20:35 Mostly Clear 63 17 48 9 59 59 SSW 7 11 29.97 1015 10 16 0.00 0.00
8:55 pm 20:55 Partly Cloudy 63 17 48 9 59 59 SSW 7 11 29.97 1015 10 16 0.00 0.00
9:15 pm 21:15 Mostly Cloudy 63 17 48 9 59 59 S 7 11 29.97 1015 10 16 0.00 0.00
9:35 pm 21:35 Partly Cloudy 61 16 48 9 63 63 S 7 11 29.97 1015 10 16 0.00 0.00
9:55 pm 21:55 Mostly Cloudy 61 16 50 10 68 68 SSE 5 7 29.97 1015 10 16 0.00 0.00
10:15 pm 22:15 Partly Cloudy 61 16 50 10 68 68 S 8 13 29.97 1015 10 16 0.00 0.00
10:35 pm 22:35 Mostly Clear 59 15 50 10 72 72 S 9 15 30.00 1016 10 16 0.00 0.00
10:55 pm 22:55 Partly Cloudy 61 16 50 10 68 68 S 9 15 29.97 1015 10 16 0.00 0.00
11:15 pm 23:15 Cloudy 61 16 52 11 72 72 S 10 17 29.97 1015 10 16 0.00 0.00
11:35 pm 23:35 Mostly Cloudy 61 16 52 11 72 72 S 12 19 29.97 1015 10 16 0.00 0.00
11:55 pm 23:55 Mostly Cloudy 61 16 52 11 72 72 S 13 20 29.94 1014 10 16 0.00 0.00

Powered by AerisWeather